Voltar ao catálogo

CZ-3B DEB

LostHEO
NORAD 40844·DEBRIS·🇨🇳 China

Lançado Dec 19, 2011 de Xichang Satellite Launch Center

Loading…

Próximas Passagens (próximas 24 horas)

TLE

ObsoletoSource: Space-Track

Época: May 27, 2022, 13:27 UTC

1 40844U 11077Z   22147.56056962 -.00000329  00000-0  52200-3 0  9998
2 40844  23.0834   0.4248 7551615 236.1298  29.1831  1.82109207 48793

Acompanhe CZ-3B DEB em tempo real com AllMySat

Download on the App Store